BER8SH EDDH-LOWI

Flight info

Callsign BER8SH
Flight time 1h 20m
Altitude 30000
Route IDEKO7G IDEKO N850 XAROL DCT BOMBI DCT GIGET DCT ABUKA DCT BATUB M738 MADEB MADEB1B
Aircraft A320/M-SDE3FGHIRWY/LB1

Departure

Time 2026-05-05 09:10
Airport Hamburg Helmut Schmidt Airport (EDDH)

Arrival

Time 2026-05-05 10:31
Airport Innsbruck Airport (LOWI)
Time Latitude Longitude Altitude Speed Heading
2026-05-05 08:44 53.63082 10.00082 51 ft 0 kts 325°
2026-05-05 08:59 53.63067 10.00101 51 ft 4 kts 319°
2026-05-05 08:59 53.63049 10.00133 48 ft 4 kts 291°
2026-05-05 09:00 53.63048 10.00164 47 ft 2 kts 212°
2026-05-05 09:00 53.63050 10.00165 47 ft 0 kts 212°
2026-05-05 09:04 53.63041 10.00156 51 ft 4 kts 212°
2026-05-05 09:04 53.62997 10.00110 51 ft 10 kts 212°
2026-05-05 09:04 53.62952 10.00061 51 ft 7 kts 217°
2026-05-05 09:04 53.62927 10.00008 51 ft 5 kts 234°
2026-05-05 09:05 53.62905 9.99951 51 ft 6 kts 241°
2026-05-05 09:05 53.62888 9.99893 50 ft 4 kts 243°
2026-05-05 09:05 53.62870 9.99832 51 ft 7 kts 244°
2026-05-05 09:05 53.62863 9.99751 53 ft 7 kts 304°
2026-05-05 09:06 53.62878 9.99734 52 ft 0 kts 329°
2026-05-05 09:09 53.62900 9.99713 53 ft 16 kts 330°
2026-05-05 09:09 53.63230 9.99428 52 ft 88 kts 333°
2026-05-05 09:10 53.63955 9.98802 50 ft 144 kts 333°
2026-05-05 09:10 53.64931 9.97969 371 ft 159 kts 335°
2026-05-05 09:10 53.65922 9.97132 957 ft 160 kts 335°
2026-05-05 09:10 53.66917 9.96283 1593 ft 161 kts 336°
2026-05-05 09:11 53.67949 9.95400 2019 ft 175 kts 336°
2026-05-05 09:11 53.69106 9.94417 2242 ft 196 kts 335°
2026-05-05 09:11 53.70360 9.93342 2620 ft 209 kts 333°
2026-05-05 09:11 53.71449 9.91683 3128 ft 219 kts 296°
2026-05-05 09:12 53.71689 9.89091 3530 ft 235 kts 262°
2026-05-05 09:12 53.71284 9.86288 3999 ft 255 kts 251°
2026-05-05 09:12 53.70661 9.83488 4836 ft 260 kts 249°
2026-05-05 09:12 53.69982 9.80649 5764 ft 262 kts 249°
2026-05-05 09:13 53.69313 9.77774 6623 ft 265 kts 249°
2026-05-05 09:13 53.68666 9.74851 7461 ft 268 kts 250°
2026-05-05 09:13 53.68036 9.71871 8290 ft 271 kts 250°
2026-05-05 09:13 53.67398 9.68866 9095 ft 274 kts 245°
2026-05-05 09:14 53.66295 9.66239 9837 ft 278 kts 221°
2026-05-05 09:14 53.64610 9.64632 10558 ft 283 kts 197°
2026-05-05 09:14 53.62618 9.63912 10892 ft 305 kts 192°
2026-05-05 09:14 53.60452 9.63250 11083 ft 328 kts 191°
2026-05-05 09:15 53.58126 9.62565 11406 ft 348 kts 191°
2026-05-05 09:15 53.55708 9.61857 12020 ft 356 kts 191°
2026-05-05 09:15 53.55253 9.61724 12134 ft 357 kts 191°
2026-05-05 09:15 53.52800 9.61014 12347 ft 359 kts 191°
2026-05-05 09:16 53.50319 9.60278 12965 ft 364 kts 192°
2026-05-05 09:16 53.47817 9.59523 13636 ft 368 kts 192°
2026-05-05 09:16 53.45319 9.58766 14214 ft 372 kts 192°
2026-05-05 09:16 53.42764 9.57993 14810 ft 375 kts 192°
2026-05-05 09:17 53.40189 9.57212 15405 ft 378 kts 192°
2026-05-05 09:17 53.37596 9.56420 15999 ft 381 kts 192°
2026-05-05 09:17 53.34979 9.55629 16589 ft 384 kts 192°
2026-05-05 09:17 53.32337 9.54848 17180 ft 387 kts 192°
2026-05-05 09:18 53.29666 9.54059 17781 ft 391 kts 192°
2026-05-05 09:18 53.26976 9.53256 18377 ft 394 kts 192°
2026-05-05 09:18 53.24266 9.52443 18897 ft 397 kts 192°
2026-05-05 09:18 53.21541 9.51625 19421 ft 400 kts 192°
2026-05-05 09:19 53.18792 9.50801 19936 ft 402 kts 192°
2026-05-05 09:19 53.16035 9.49976 20441 ft 404 kts 192°
2026-05-05 09:19 53.13259 9.49141 20935 ft 407 kts 193°
2026-05-05 09:19 53.10464 9.48303 21413 ft 409 kts 192°
2026-05-05 09:20 53.07693 9.47479 21883 ft 411 kts 192°
2026-05-05 09:20 53.04872 9.46651 22339 ft 413 kts 192°
2026-05-05 09:20 53.02035 9.45822 22791 ft 415 kts 192°
2026-05-05 09:20 52.99186 9.44985 23218 ft 417 kts 192°
2026-05-05 09:21 52.96305 9.44229 23610 ft 420 kts 191°
2026-05-05 09:21 52.93402 9.43581 23960 ft 422 kts 190°
2026-05-05 09:21 52.90481 9.42995 24345 ft 424 kts 189°
2026-05-05 09:21 52.87547 9.42426 24776 ft 426 kts 189°
2026-05-05 09:22 52.84596 9.41847 25145 ft 428 kts 190°
2026-05-05 09:22 52.81638 9.41252 25494 ft 428 kts 190°
2026-05-05 09:22 52.78678 9.40634 25830 ft 430 kts 191°
2026-05-05 09:22 52.75707 9.40002 26145 ft 431 kts 191°
2026-05-05 09:23 52.72726 9.39360 26456 ft 432 kts 191°
2026-05-05 09:23 52.69776 9.38723 26756 ft 434 kts 191°
2026-05-05 09:23 52.66777 9.38081 27047 ft 435 kts 192°
2026-05-05 09:23 52.63769 9.37448 27336 ft 436 kts 192°
2026-05-05 09:24 52.60754 9.36795 27656 ft 437 kts 192°
2026-05-05 09:24 52.57740 9.36055 27960 ft 439 kts 194°
2026-05-05 09:24 52.54727 9.35248 28247 ft 439 kts 194°
2026-05-05 09:24 52.51709 9.34414 28498 ft 440 kts 194°
2026-05-05 09:25 52.48689 9.33579 28725 ft 441 kts 194°
2026-05-05 09:25 52.45666 9.32760 29041 ft 440 kts 194°
2026-05-05 09:25 52.42650 9.31962 29384 ft 438 kts 194°
2026-05-05 09:25 52.39654 9.31182 29729 ft 437 kts 194°
2026-05-05 09:26 52.36634 9.30402 29901 ft 435 kts 194°
2026-05-05 09:26 52.30701 9.28872 29916 ft 429 kts 194°
2026-05-05 09:27 52.24844 9.27336 29913 ft 429 kts 194°
2026-05-05 09:27 52.18916 9.25971 29917 ft 431 kts 192°
2026-05-05 09:28 52.12949 9.24957 29915 ft 431 kts 191°
2026-05-05 09:28 52.06970 9.23975 29897 ft 431 kts 191°
2026-05-05 09:29 52.01034 9.22746 29889 ft 429 kts 193°
2026-05-05 09:29 51.95186 9.21156 29876 ft 428 kts 194°
2026-05-05 09:30 51.89313 9.19500 29875 ft 429 kts 194°
2026-05-05 09:30 51.83406 9.18044 29869 ft 430 kts 192°
2026-05-05 09:31 51.77469 9.16819 29872 ft 430 kts 192°
2026-05-05 09:31 51.71530 9.15599 29869 ft 430 kts 192°
2026-05-05 09:32 51.65605 9.14326 29866 ft 430 kts 192°
2026-05-05 09:32 51.59673 9.13046 29869 ft 429 kts 191°
2026-05-05 09:33 51.53786 9.11767 29871 ft 429 kts 191°
2026-05-05 09:33 51.47883 9.10358 29870 ft 427 kts 194°
2026-05-05 09:34 51.42078 9.08389 29872 ft 426 kts 196°
2026-05-05 09:34 51.36305 9.06260 29873 ft 426 kts 196°
2026-05-05 09:35 51.30512 9.04266 29868 ft 426 kts 193°
2026-05-05 09:35 51.21653 9.02422 29874 ft 428 kts 189°
2026-05-05 09:36 51.15732 9.01433 29874 ft 428 kts 189°
2026-05-05 09:36 51.09818 9.00310 29872 ft 427 kts 190°
2026-05-05 09:37 51.03929 8.99121 29873 ft 427 kts 190°
2026-05-05 09:37 50.98073 8.97932 29872 ft 426 kts 190°
2026-05-05 09:38 50.92181 8.96763 29868 ft 426 kts 190°
2026-05-05 09:38 50.86299 8.95607 29866 ft 425 kts 190°
2026-05-05 09:39 50.80466 8.94473 29860 ft 425 kts 190°
2026-05-05 09:39 50.74580 8.93325 29859 ft 425 kts 190°
2026-05-05 09:40 50.68711 8.92177 29860 ft 425 kts 190°
2026-05-05 09:40 50.62883 8.91034 29858 ft 425 kts 189°
2026-05-05 09:41 50.56983 8.89882 29861 ft 425 kts 189°
2026-05-05 09:41 50.51145 8.88754 29856 ft 425 kts 189°
2026-05-05 09:42 50.45278 8.87622 29853 ft 425 kts 189°
2026-05-05 09:42 50.39410 8.86493 29855 ft 425 kts 189°
2026-05-05 09:43 50.33540 8.85368 29855 ft 425 kts 189°
2026-05-05 09:43 50.27678 8.84236 29857 ft 425 kts 189°
2026-05-05 09:44 50.21811 8.83108 29856 ft 425 kts 189°
2026-05-05 09:44 50.15946 8.81994 29855 ft 424 kts 189°
2026-05-05 09:45 50.10088 8.80875 29854 ft 424 kts 189°
2026-05-05 09:45 50.04274 8.79765 29852 ft 424 kts 189°
2026-05-05 09:46 49.98414 8.78567 29853 ft 423 kts 189°
2026-05-05 09:46 49.92570 8.77325 29855 ft 423 kts 189°
2026-05-05 09:47 49.86735 8.76095 29857 ft 423 kts 189°
2026-05-05 09:47 49.80940 8.74892 29857 ft 423 kts 189°
2026-05-05 09:48 49.75096 8.73697 29858 ft 423 kts 189°
2026-05-05 09:48 49.69262 8.72504 29864 ft 423 kts 189°
2026-05-05 09:49 49.63418 8.71320 29869 ft 423 kts 188°
2026-05-05 09:49 49.57575 8.70143 29874 ft 423 kts 189°
2026-05-05 09:50 49.51776 8.68968 29878 ft 423 kts 188°
2026-05-05 09:50 49.45898 8.69002 29874 ft 426 kts 172°
2026-05-05 09:51 49.40245 8.71872 29876 ft 430 kts 160°
2026-05-05 09:51 49.34711 8.75370 29869 ft 430 kts 160°
2026-05-05 09:52 49.29159 8.78841 29868 ft 430 kts 161°
2026-05-05 09:52 49.23620 8.82309 29864 ft 430 kts 160°
2026-05-05 09:53 49.18087 8.85768 29856 ft 429 kts 161°
2026-05-05 09:53 49.12589 8.89181 29860 ft 429 kts 161°
2026-05-05 09:54 49.07025 8.92634 29856 ft 429 kts 161°
2026-05-05 09:54 49.01534 8.96035 29857 ft 429 kts 161°
2026-05-05 09:55 48.96011 8.99453 29860 ft 428 kts 161°
2026-05-05 09:55 48.90493 9.02865 29857 ft 428 kts 161°
2026-05-05 09:56 48.84967 9.06257 29852 ft 428 kts 161°
2026-05-05 09:56 48.79453 9.09637 29863 ft 427 kts 160°
2026-05-05 09:57 48.74842 9.12464 29857 ft 427 kts 160°
2026-05-05 09:57 48.69341 9.15829 29861 ft 426 kts 160°
2026-05-05 09:58 48.63841 9.19179 29867 ft 426 kts 160°
2026-05-05 09:58 48.58344 9.22521 29857 ft 426 kts 161°
2026-05-05 09:59 48.52850 9.25849 29854 ft 426 kts 160°
2026-05-05 09:59 48.47385 9.29167 29852 ft 426 kts 160°
2026-05-05 10:00 48.41851 9.32516 29846 ft 426 kts 161°
2026-05-05 10:00 48.36339 9.35830 29851 ft 427 kts 161°
2026-05-05 10:01 48.30826 9.39139 29857 ft 427 kts 161°
2026-05-05 10:01 48.25357 9.42417 29852 ft 428 kts 161°
2026-05-05 10:02 48.19833 9.45716 29850 ft 428 kts 161°
2026-05-05 10:02 48.14283 9.49033 29847 ft 429 kts 161°
2026-05-05 10:03 48.11507 9.50686 29641 ft 430 kts 161°
2026-05-05 10:03 48.08720 9.52345 29356 ft 431 kts 161°
2026-05-05 10:03 48.05942 9.53999 29072 ft 432 kts 161°
2026-05-05 10:03 48.03159 9.55711 28796 ft 432 kts 157°
2026-05-05 10:04 48.00532 9.57893 28522 ft 434 kts 149°
2026-05-05 10:04 47.98075 9.60517 28245 ft 433 kts 147°
2026-05-05 10:04 47.95644 9.63164 27992 ft 432 kts 147°
2026-05-05 10:04 47.93222 9.65791 27719 ft 430 kts 147°
2026-05-05 10:05 47.90801 9.68401 27452 ft 428 kts 147°
2026-05-05 10:05 47.88453 9.70927 27197 ft 427 kts 147°
2026-05-05 10:05 47.86054 9.73505 26937 ft 425 kts 147°
2026-05-05 10:05 47.83654 9.76085 26678 ft 424 kts 147°
2026-05-05 10:06 47.81273 9.78647 26416 ft 422 kts 147°
2026-05-05 10:06 47.78903 9.81195 26170 ft 421 kts 147°
2026-05-05 10:06 47.76531 9.83743 25921 ft 419 kts 147°
2026-05-05 10:06 47.74166 9.86276 25665 ft 418 kts 147°
2026-05-05 10:07 47.71809 9.88798 25383 ft 416 kts 147°
2026-05-05 10:07 47.69475 9.91293 24789 ft 412 kts 147°
2026-05-05 10:07 47.67151 9.93768 24167 ft 410 kts 147°
2026-05-05 10:07 47.64843 9.96226 23565 ft 407 kts 146°
2026-05-05 10:08 47.62548 9.98671 22900 ft 405 kts 146°
2026-05-05 10:08 47.60274 10.01093 22343 ft 400 kts 146°
2026-05-05 10:08 47.58027 10.03485 21806 ft 396 kts 146°
2026-05-05 10:08 47.55803 10.05845 21291 ft 392 kts 146°
2026-05-05 10:09 47.53598 10.08178 20789 ft 387 kts 146°
2026-05-05 10:09 47.51419 10.10482 20308 ft 383 kts 146°
2026-05-05 10:09 47.49258 10.12764 19841 ft 380 kts 146°
2026-05-05 10:09 47.47116 10.15025 19375 ft 376 kts 146°
2026-05-05 10:10 47.45000 10.17260 18916 ft 373 kts 146°
2026-05-05 10:10 47.42878 10.19444 18450 ft 370 kts 148°
2026-05-05 10:10 47.40728 10.21494 17954 ft 367 kts 149°
2026-05-05 10:10 47.38568 10.23450 17583 ft 360 kts 150°
2026-05-05 10:11 47.36439 10.25349 17116 ft 357 kts 149°
2026-05-05 10:11 47.34495 10.27613 16630 ft 356 kts 137°
2026-05-05 10:11 47.32943 10.30463 16134 ft 358 kts 124°
2026-05-05 10:11 47.31869 10.33757 15641 ft 361 kts 111°
2026-05-05 10:12 47.31282 10.37360 15232 ft 361 kts 103°
2026-05-05 10:12 47.30823 10.40866 15095 ft 343 kts 104°
2026-05-05 10:12 47.30367 10.44238 14973 ft 321 kts 104°
2026-05-05 10:12 47.29934 10.47367 14846 ft 302 kts 105°
2026-05-05 10:13 47.29528 10.50268 14721 ft 287 kts 105°
2026-05-05 10:13 47.29126 10.53108 14590 ft 280 kts 105°
2026-05-05 10:13 47.28736 10.55882 14464 ft 275 kts 104°
2026-05-05 10:13 47.28615 10.58725 14268 ft 282 kts 90°
2026-05-05 10:14 47.28723 10.61615 13957 ft 282 kts 90°
2026-05-05 10:14 47.28844 10.64480 13748 ft 281 kts 90°
2026-05-05 10:14 47.28969 10.67382 13277 ft 288 kts 90°
2026-05-05 10:14 47.29090 10.70326 12701 ft 289 kts 90°
2026-05-05 10:15 47.29212 10.73282 12127 ft 289 kts 89°
2026-05-05 10:15 47.29334 10.76237 11568 ft 289 kts 89°
2026-05-05 10:15 47.29451 10.79183 10991 ft 288 kts 89°
2026-05-05 10:15 47.29566 10.82123 10409 ft 287 kts 89°
2026-05-05 10:16 47.29679 10.85045 9835 ft 286 kts 89°
2026-05-05 10:16 47.29790 10.87951 9219 ft 281 kts 89°
2026-05-05 10:16 47.29899 10.90767 8804 ft 271 kts 89°
2026-05-05 10:16 47.30005 10.93490 8432 ft 262 kts 88°
2026-05-05 10:17 47.30106 10.96125 8076 ft 253 kts 88°
2026-05-05 10:17 47.30203 10.98681 7721 ft 248 kts 88°
2026-05-05 10:17 47.30297 11.01208 7376 ft 246 kts 88°
2026-05-05 10:17 47.30387 11.03684 7034 ft 245 kts 88°
2026-05-05 10:18 47.30478 11.06231 6690 ft 247 kts 89°
2026-05-05 10:18 47.30361 11.08754 6347 ft 247 kts 103°
2026-05-05 10:18 47.29831 11.11068 5991 ft 235 kts 114°
2026-05-05 10:18 47.29202 11.13230 5620 ft 227 kts 114°
2026-05-05 10:19 47.28582 11.15359 5263 ft 224 kts 113°
2026-05-05 10:19 47.27974 11.17446 5182 ft 216 kts 114°
2026-05-05 10:19 47.27308 11.19395 4884 ft 214 kts 122°
2026-05-05 10:19 47.26481 11.21178 4684 ft 207 kts 127°
2026-05-05 10:20 47.25642 11.22912 4214 ft 212 kts 123°
2026-05-05 10:20 47.25073 11.24937 3678 ft 214 kts 104°
2026-05-05 10:20 47.25098 11.27056 3332 ft 208 kts 75°
2026-05-05 10:20 47.25514 11.29089 2852 ft 212 kts 77°
2026-05-05 10:21 47.25691 11.31272 2311 ft 212 kts 92°
2026-05-05 10:21 47.25920 11.33369 2011 ft 202 kts 79°
2026-05-05 10:21 47.26221 11.35504 2235 ft 233 kts 85°
2026-05-05 10:21 47.26441 11.38099 2666 ft 276 kts 84°
2026-05-05 10:22 47.26727 11.40967 3623 ft 280 kts 83°
2026-05-05 10:22 47.27019 11.43745 3895 ft 266 kts 81°
2026-05-05 10:22 47.27621 11.46220 3987 ft 252 kts 66°
2026-05-05 10:22 47.28162 11.48597 3999 ft 240 kts 81°
2026-05-05 10:23 47.28441 11.51007 4014 ft 238 kts 84°
2026-05-05 10:23 47.28687 11.53429 4003 ft 239 kts 87°
2026-05-05 10:23 47.28471 11.55797 4066 ft 232 kts 111°
2026-05-05 10:23 47.27755 11.57895 4372 ft 230 kts 123°
2026-05-05 10:24 47.27322 11.60120 4629 ft 238 kts 85°
2026-05-05 10:24 47.28069 11.62236 5009 ft 243 kts 48°
2026-05-05 10:24 47.29237 11.64028 5176 ft 246 kts 50°
2026-05-05 10:24 47.30337 11.65970 5137 ft 238 kts 57°
2026-05-05 10:25 47.31085 11.67967 5112 ft 217 kts 67°
2026-05-05 10:25 47.32063 11.69519 5099 ft 211 kts 23°
2026-05-05 10:25 47.33475 11.69466 4903 ft 208 kts 332°
2026-05-05 10:25 47.34284 11.67817 4803 ft 204 kts 272°
2026-05-05 10:26 47.33907 11.65958 4613 ft 187 kts 220°
2026-05-05 10:26 47.32841 11.64981 4296 ft 178 kts 202°
2026-05-05 10:26 47.31752 11.64116 4159 ft 174 kts 214°
2026-05-05 10:26 47.30957 11.62875 4233 ft 163 kts 231°
2026-05-05 10:27 47.30399 11.61397 4529 ft 167 kts 239°
2026-05-05 10:27 47.29913 11.59819 4659 ft 170 kts 241°
2026-05-05 10:27 47.29463 11.58206 4793 ft 170 kts 243°
2026-05-05 10:27 47.28990 11.56615 4872 ft 170 kts 241°
2026-05-05 10:28 47.28516 11.55028 4892 ft 168 kts 243°
2026-05-05 10:28 47.28070 11.53421 4772 ft 170 kts 247°
2026-05-05 10:28 47.27896 11.51670 4768 ft 176 kts 261°
2026-05-05 10:28 47.27747 11.49889 4750 ft 174 kts 260°
2026-05-05 10:29 47.27565 11.48121 4660 ft 176 kts 257°
2026-05-05 10:29 47.27318 11.46369 4376 ft 171 kts 252°
2026-05-05 10:29 47.27100 11.44662 4123 ft 170 kts 261°
2026-05-05 10:29 47.26947 11.42921 3679 ft 174 kts 258°
2026-05-05 10:30 47.26724 11.41141 3167 ft 179 kts 257°
2026-05-05 10:30 47.26540 11.39373 2818 ft 170 kts 261°
2026-05-05 10:30 47.26389 11.37660 2415 ft 169 kts 258°
2026-05-05 10:30 47.26190 11.35937 1987 ft 171 kts 255°
2026-05-05 10:31 47.26014 11.34422 1900 ft 112 kts 261°
2026-05-05 10:31 47.25945 11.33732 1898 ft 24 kts 261°
2026-05-05 10:31 47.25922 11.33514 1893 ft 21 kts 259°
2026-05-05 10:31 47.25899 11.33303 1902 ft 20 kts 262°
2026-05-05 10:32 47.25858 11.33180 1902 ft 12 kts 221°
2026-05-05 10:32 47.25879 11.33142 1896 ft 8 kts 50°
2026-05-05 10:32 47.25894 11.33220 1896 ft 8 kts 78°
2026-05-05 10:32 47.25905 11.33309 1902 ft 10 kts 79°
2026-05-05 10:33 47.25916 11.33414 1899 ft 11 kts 84°
2026-05-05 10:33 47.25926 11.33523 1899 ft 11 kts 80°
2026-05-05 10:33 47.25929 11.33627 1896 ft 10 kts 107°
2026-05-05 10:33 47.25892 11.33714 1896 ft 12 kts 125°
2026-05-05 10:34 47.25838 11.33825 1893 ft 16 kts 126°
2026-05-05 10:34 47.25778 11.33966 1888 ft 15 kts 111°
2026-05-05 10:34 47.25777 11.34118 1897 ft 15 kts 81°
2026-05-05 10:34 47.25790 11.34247 1899 ft 0 kts 81°
2026-05-05 10:35 47.25790 11.34251 1896 ft 2 kts 81°
2026-05-05 10:35 47.25796 11.34302 1892 ft 8 kts 81°
2026-05-05 10:35 47.25809 11.34416 1888 ft 13 kts 81°
2026-05-05 10:35 47.25824 11.34557 1891 ft 14 kts 81°
2026-05-05 10:36 47.25839 11.34704 1893 ft 15 kts 81°
2026-05-05 10:36 47.25851 11.34811 1889 ft 6 kts 81°
2026-05-05 10:36 47.25858 11.34881 1899 ft 8 kts 89°
2026-05-05 10:36 47.25827 11.34927 1896 ft 6 kts 159°
2026-05-05 10:37 47.25812 11.34933 1894 ft 0 kts 169°